YRDMP LRIA-LROP

Flight info

Callsign YRDMP
Flight time N/A
Altitude 28000
Route ABOLO1A ABOLO T74 DENAK DENAK1U
Aircraft C25C/M-SDE2E3FGHRWXY/LB1

Departure

Time 2026-04-14 19:39
Airport Iaşi International Airport (LRIA)

Arrival

Time N/A
Airport Bucharest Henri Coandă International Airport (LROP)
Time Latitude Longitude Altitude Speed Heading
2026-04-14 19:08 47.17603 27.61916 364 ft 0 kts 274°
2026-04-14 19:30 47.17603 27.61922 364 ft 2 kts 273°
2026-04-14 19:30 47.17602 27.61946 365 ft 2 kts 272°
2026-04-14 19:31 47.17601 27.61971 363 ft 2 kts 271°
2026-04-14 19:31 47.17601 27.61995 363 ft 2 kts 270°
2026-04-14 19:31 47.17600 27.62014 366 ft 0 kts 306°
2026-04-14 19:33 47.17601 27.62013 362 ft 0 kts 312°
2026-04-14 19:34 47.17621 27.62001 368 ft 8 kts 337°
2026-04-14 19:34 47.17715 27.61934 367 ft 16 kts 335°
2026-04-14 19:35 47.17790 27.62027 368 ft 22 kts 64°
2026-04-14 19:35 47.17898 27.62200 367 ft 26 kts 345°
2026-04-14 19:35 47.18063 27.62056 376 ft 30 kts 328°
2026-04-14 19:35 47.18261 27.61882 386 ft 34 kts 328°
2026-04-14 19:36 47.18460 27.61706 393 ft 33 kts 329°
2026-04-14 19:36 47.18668 27.61523 401 ft 37 kts 328°
2026-04-14 19:36 47.18876 27.61364 412 ft 28 kts 352°
2026-04-14 19:36 47.18930 27.61280 416 ft 13 kts 185°
2026-04-14 19:37 47.18867 27.61343 409 ft 0 kts 149°
2026-04-14 19:39 47.18658 27.61527 401 ft 89 kts 149°
2026-04-14 19:39 47.17995 27.62123 372 ft 136 kts 138°
2026-04-14 19:39 47.16981 27.63008 577 ft 186 kts 150°
2026-04-14 19:39 47.15815 27.63769 1685 ft 178 kts 175°
2026-04-14 19:40 47.14712 27.63225 3086 ft 167 kts 213°
2026-04-14 19:40 47.13983 27.61727 3571 ft 207 kts 234°
2026-04-14 19:40 47.13079 27.59802 3628 ft 241 kts 233°
2026-04-14 19:40 47.12143 27.57833 3713 ft 230 kts 233°
2026-04-14 19:41 47.11247 27.55946 3749 ft 223 kts 233°
2026-04-14 19:41 47.10357 27.54084 3736 ft 221 kts 233°
2026-04-14 19:41 47.09483 27.52251 3940 ft 210 kts 233°
2026-04-14 19:41 47.08685 27.50579 4411 ft 193 kts 233°
2026-04-14 19:42 47.07941 27.49014 4875 ft 180 kts 233°
2026-04-14 19:42 47.07242 27.47549 5335 ft 171 kts 234°
2026-04-14 19:42 47.06568 27.46137 5787 ft 163 kts 234°
2026-04-14 19:42 47.05929 27.44802 6238 ft 156 kts 235°
2026-04-14 19:43 47.05314 27.43525 6689 ft 150 kts 236°
2026-04-14 19:43 47.04847 27.42224 7113 ft 141 kts 265°
2026-04-14 19:43 47.04667 27.40852 7530 ft 135 kts 250°
2026-04-14 19:43 47.04166 27.39723 7958 ft 130 kts 231°
2026-04-14 19:44 47.03538 27.38653 8424 ft 152 kts 231°
2026-04-14 19:44 47.02740 27.37426 8958 ft 180 kts 229°
2026-04-14 19:44 47.01816 27.36012 9507 ft 203 kts 229°
2026-04-14 19:44 47.00787 27.34450 10084 ft 222 kts 229°
2026-04-14 19:45 46.99522 27.33031 10582 ft 241 kts 204°
2026-04-14 19:45 46.97881 27.32254 11103 ft 253 kts 199°
2026-04-14 19:45 46.96167 27.31500 11626 ft 261 kts 199°
2026-04-14 19:45 46.94408 27.30696 12149 ft 268 kts 200°
2026-04-14 19:46 46.92618 27.29858 12665 ft 273 kts 200°
2026-04-14 19:46 46.90801 27.29005 13184 ft 276 kts 200°
2026-04-14 19:46 46.88958 27.28150 13714 ft 279 kts 200°
2026-04-14 19:46 46.87102 27.27293 14218 ft 280 kts 200°
2026-04-14 19:47 46.85242 27.26425 14678 ft 282 kts 200°
2026-04-14 19:47 46.83366 27.25557 15145 ft 282 kts 200°
2026-04-14 19:47 46.81492 27.24689 15616 ft 283 kts 200°
2026-04-14 19:47 46.79614 27.23819 16091 ft 283 kts 200°
2026-04-14 19:48 46.77732 27.22951 16571 ft 284 kts 200°
2026-04-14 19:48 46.75844 27.22077 17059 ft 285 kts 200°
2026-04-14 19:48 46.73929 27.21189 17558 ft 285 kts 200°
2026-04-14 19:48 46.72677 27.20614 17894 ft 286 kts 200°
2026-04-14 19:49 46.70777 27.19735 18400 ft 286 kts 200°
2026-04-14 19:49 46.68873 27.18859 18862 ft 287 kts 200°